Showing default

TEMPSAT 1, 1512

Orbit data source: Space-Track

TEMPSAT 1, 1512 is a payload satellite owned by NRL (US) in LEO that was launched on Fri, 13 Aug 1965 UTC via a THOR ABLESTAR launch vehicle from the Air Force Western Test Range (AFWTR). Payload-class satellites include a variety of spacecraft equipped with specific instruments for various scientific and technological missions. These include communications satellites like Starlink; space stations such as the ISS; scientific satellites like the Hubble; Earth observation satellites from companies like Planet Labs, Umbra, and HawkEye 360; GPS; miniature CubeSats for education and research; and military/defense satellites.

Loading next visibility...
Identifier
1512, 1965-065E
Orbit
LEO
Country
Flag of USUS
Related business
Manufacturer
NRL
Mission
Operational spacecraft
Bus & Motor
NRL 14", Unknown motor
Mass
9 kg wet, 9 kg dry
Launch date (UTC)
1965-08-13 (61 years ago)
Launch vehicle
THOR ABLESTAR
Launch site
Air Force Western Test Range (AFWTR)
Object type
Payload
Rocket body
Debris
Shape & HBR
Unknown
Radar Cross Section
Medium (>0.1 m² and <1 m²)

Expand to show TLE details & history
Last TLE update: 13 hours ago

TLE from 13 hours ago
0 TEMPSAT 1
1 01512U 65065E   26170.62625917  .00000024  00000-0  31678-4 0  9990
2 01512  89.9987 212.5943 0067918 241.0022 243.4218 13.33594221960371
Epoch: 2026-06-19T15:01Z
TLE epoch observation values (Epoch: 2026-06-19T15:01:48.792Z)
Latitude
56.36142°
Longitude
-100.71348°
Altitude
1,165.822 km
Speed
7.264 km/s
True Right ascension
02h 10m 22s
True Declination
56° 12' 40"
Sunlit
Object was in daylight at epoch
Visualization orbit readout
Latitude
Unknown
Longitude
Unknown
Altitude
Unknown
Speed
Unknown
Apparent Right ascension
Unknown
Apparent Declination
Unknown
Sunlit
N/A
Visualization observer readout
Local Sidereal Time
14:52:16
Azimuth
Unknown
Elevation
Unknown
Doppler factor
Unknown
Orbital elements
Apogee altitude
1,181.306 km
Perigee altitude
1,079.314 km
Semi-major axis
7,508.447 km
Eccentricity
0.00679
Inclination
89.9987°
RAAN
212.5943°
Arg. of periapsis
241.0022°
True anomaly
242.72841°
Mean anomaly
243.4218°
Eccentric anomaly
243.07484°
Mean motion
3.33594 °/min
Orbital period
107.92 mins
BSTAR
0.000031678
Loading maneuver chart data...
Computing Atmospheric mass density...
Loading historical data...
Loading historical data...
Loading historical data...
Loading historical data...
Loading historical data...
Loading historical data...
Loading historical data...

Documentation

Showing up to 5 results
|